FENGYUN 1C DEB, 31341

Orbit data source: Space-Track

FENGYUN 1C DEB, 31341 is space debris in SSO originally from a launch on Mon, 10 May 1999 UTC launched from the Taiyaun Space Center, China (TSC). Fengyun 1C debris stems from the Chinese weather satellite Fengyun-1C, which was intentionally destroyed by a Chinese anti-satellite missile in 2007. This event dramatically increased the amount of space debris, with thousands of trackable fragments posing hazards to satellites and human spaceflight. The Fengyun 1C debris cloud has become a focal point in discussions about space sustainability and the need for international regulations to prevent the creation of new debris.

Loading next visibility...
Identifier
31341, 1999-025BQV
Orbit
SSO
Country
Flag of CNCN / PRC
Related business
Manufacturer
Unknown
Mission
Spacecraft
Bus & Motor
Unknown
Mass
Unknown
Launch date (UTC)
1999-05-10 (27 years ago)
Launch vehicle
Unknown
Launch site
Taiyaun Space Center, China (TSC)
Object type
Payload
Rocket body
Debris
Shape & HBR
Unknown shape, 0.1 m
Radar Cross Section
Small (<0.1 m²)

Expand to show TLE details & history
Last TLE update: 2 days ago

TLE from 2 days ago
0 FENGYUN 1C DEB
1 31341U 99025BQV 26071.11013385  .00004852  00000-0  11316-2 0  9998
2 31341  99.5440 129.8296 0053434  83.0598 338.9088 14.54451458989178
Epoch: 2026-03-12T02:38Z
TLE epoch observation values (Epoch: 2026-03-12T02:38:35.564Z)
Latitude
60.40373°
Longitude
-96.70577°
Altitude
686.06 km
Speed
7.538 km/s
True Right ascension
07h 30m 49s
True Declination
60° 15' 15"
Sunlit
Object was in daylight at epoch
Visualization orbit readout
Latitude
Unknown
Longitude
Unknown
Altitude
Unknown
Speed
Unknown
Apparent Right ascension
Unknown
Apparent Declination
Unknown
Sunlit
N/A
Visualization observer readout
Local Sidereal Time
14:40:45
Azimuth
Unknown
Elevation
Unknown
Doppler factor
Unknown
Orbital elements
Apogee altitude
746.167 km
Perigee altitude
670.436 km
Semi-major axis
7,086.439 km
Eccentricity
0.00534
Inclination
99.544°
RAAN
129.8296°
Arg. of periapsis
83.0598°
True anomaly
338.68708°
Mean anomaly
338.9088°
Eccentric anomaly
338.79808°
Mean motion
3.63832 °/min
Orbital period
98.95 mins
BSTAR
0.0011316
Loading maneuver chart data...
Computing Atmospheric mass density...

Documentation

Showing up to 5 results
|